Starlink 11157

operational
NORAD ID: 60122 Int'l Des: 2024-118 Owner: SPXS Country: US Constellation: starlink
LEOCIRCULAR

Über Starlink 11157

Beschreibung wird geladen...

Live-Position

3D-Globus wird geladen...

Nächste Überflüge

Höhenverlauf

Altitude vs Time

uPlot chart will show altitude changes over time

Zweizeiliger Elementsatz

1 60122U 24118K 25259.28460687 -.00002237 00000-0 -13609-4 0 9990
2 60122 53.1595 0.8233 0001081 81.7212 278.3928 15.69712422 70609
Epoch: 16. Sept. 2025 • Age: 13 hours

Aktueller Status

Höhe 362.6 km
Geschwindigkeit 7.70 km/s
Subsatellitenpunkt 39.32°N, 149.36°W
Startdatum 24. Juni 2024
Alter 1.2 years
Typ internet

Technische Details

Klassifizierung Payload
Masse 960.00 kg
Trockenmasse 910.00 kg
Gesamtmasse 960.00 kg
Länge 0.30 m
Durchmesser 4.10 m
Spannweite 29.00 m
Form Box + pan
Hersteller SPXS
Bus-Typ Starlink V2MD
Phasenstatus In Orbit
Besitzer/Staat SPXS/US

Große Konstellationen

Loading constellations...